Location: Bieg
(49.3499°N, 10.3835°E)
Time: 17:11:18
(UTC+00:00)

Meteor 1-28 Rocket - Pass Details

Date: 18 December 2025
Orbit: 429 x 441 km, 97.6° (Epoch: 12 January)

Event Time Altitude Azimuth Distance (km) Brightness Sun altitude
Exits shadow 16:16:49 - 15° (NNE) 2,191 6.0 -8.7°
Reaches altitude 10° 16:18:18 10° 17° (NNE) 1,561 5.2 -8.9°
Maximum altitude 16:21:38 73° 103° (ESE) 462 2.8 -9.4°
Drops below altitude 10° 16:24:55 10° 188° (S) 1,538 6.1 -9.8°
Sets 16:26:55 0° 191° (S) 2,398 7.1 -10.1°
